Weather in Nakhon Phanom

Thailand     17°24′11″N   104°47′06″E
temp.,
°C
wind,
m/s
gust,
m/s
humid.,
%
clouds,
%
prec.,
mm/h
press.,
hPa
HPBL,
m
4 december, sat
sat401:00+10e11795 0.0 102013
04:00+9nne21685 0.0 102017
07:00+11e115925 0.0 102121
10:00+23ne25275 0.0 10201195
13:00+28ne35233 0.0 10151996
16:00+25e563328 0.0 1014908
19:00+19ene4114820 0.0 1017472
22:00+13ene237121 0.0 101953
5 december, sun
sun501:00+11ene11818 0.0 101916
04:00+10ne117334 0.0 101914
07:00+11nne11725 0.0 102042
10:00+23ne35315 0.0 10201150
13:00+28ne45265 0.0 10162014
16:00+26e4536100 0.0 10151159
19:00+19ene41152100 0.0 1017460
22:00+15ene226955 0.0 101835
6 december, mon
mon601:00+12ene1174100 0.0 101816
04:00+12ne1166100 0.0 101714
07:00+13nne116110 0.0 101926
10:00+24ne353215 0.0 10191132
13:00+29ne352570 0.0 10152207
16:00+26e56335 0.0 10131096
19:00+20ene411515 0.0 1016516
22:00+15e12704 0.0 101847
7 december, tue
tue701:00+13ene11800 0.0 101815
04:00+12ene117558 0.0 101713
07:00+13e116350 0.0 101930
10:00+24ne46280 0.0 10191068
13:00+29ne34240 0.0 10152096
16:00+26ene55380 0.0 10141004
19:00+19ene39577 0.0 1017307
22:00+15ne22765 0.0 101834
8 december, wed
wed801:00+14ne118315 0.0 101719
04:00+14nne11825 0.0 101715
07:00+15nne127410 0.0 101960
10:00+26ne25441 0.0 1019929
13:00+30e454084 0.0 10152157
16:00+28ene564851 0.0 10141313
19:00+22ene3106613 0.0 1016519
22:00+18ene2283100 0.0 101845